Previsão horária em Cerny-en-Laonnois

Hoje, 31 Julho, Sábado

Tempo Temperatura Precipitação Vento Pressão Humidade
00:00 +13°C° 0 mm 3 m/s 750 mmHg 81%
01:00 +12°C° 0 mm 3 m/s 750 mmHg 84%
02:00 +12°C° 0 mm 3 m/s 750 mmHg 86%
03:00 +12°C° 0 mm 3 m/s 750 mmHg 88%
04:00 +12°C° 0 mm 4 m/s 750 mmHg 88%
05:00 +13°C° 0 mm 4 m/s 750 mmHg 89%
06:00 +13°C° 0 mm 4 m/s 750 mmHg 89%
07:00 +14°C° 0 mm 4 m/s 751 mmHg 85%
08:00 +15°C° 0 mm 4 m/s 751 mmHg 81%
09:00 +16°C° 0 mm 5 m/s 751 mmHg 78%
10:00 +17°C° 0 mm 5 m/s 751 mmHg 75%
11:00 +18°C° 0 mm 4 m/s 751 mmHg 72%
12:00 +19°C° 0 mm 4 m/s 751 mmHg 70%
13:00 +19°C° 0 mm 4 m/s 751 mmHg 68%
14:00 +20°C° 0 mm 4 m/s 751 mmHg 67%
15:00 +20°C° 0 mm 4 m/s 750 mmHg 66%
16:00 +20°C° 0.2 mm 3 m/s 750 mmHg 70%
17:00 +19°C° 0.2 mm 2 m/s 750 mmHg 74%
18:00 +19°C° 0.2 mm 2 m/s 750 mmHg 78%
19:00 +18°C° 0 mm 2 m/s 750 mmHg 81%
20:00 +16°C° 0 mm 1 m/s 750 mmHg 84%
21:00 +15°C° 0 mm 1 m/s 750 mmHg 87%
22:00 +14°C° 0 mm 1 m/s 750 mmHg 88%
23:00 +14°C° 0 mm 1 m/s 750 mmHg 90%

Amanhã, 1 Agosto, Domingo

Tempo Temperatura Precipitação Vento Pressão Humidade
00:00 +13°C° 0 mm 1 m/s 750 mmHg 91%
01:00 +13°C° 0 mm 1 m/s 750 mmHg 92%
02:00 +13°C° 0 mm 1 m/s 750 mmHg 92%
03:00 +12°C° 0 mm 1 m/s 750 mmHg 93%
04:00 +13°C° 0 mm 1 m/s 750 mmHg 92%
05:00 +14°C° 0 mm 1 m/s 750 mmHg 91%
06:00 +14°C° 0 mm 1 m/s 750 mmHg 89%
07:00 +16°C° 0 mm 2 m/s 751 mmHg 83%
08:00 +17°C° 0 mm 3 m/s 751 mmHg 76%
09:00 +19°C° 0 mm 3 m/s 751 mmHg 70%
10:00 +20°C° 0.1 mm 4 m/s 751 mmHg 66%
11:00 +21°C° 0.1 mm 4 m/s 750 mmHg 63%
12:00 +22°C° 0.1 mm 4 m/s 750 mmHg 59%
13:00 +21°C° 0.3 mm 4 m/s 750 mmHg 63%
14:00 +21°C° 0.3 mm 4 m/s 750 mmHg 68%
15:00 +20°C° 0.3 mm 4 m/s 750 mmHg 72%
16:00 +20°C° 0.4 mm 4 m/s 750 mmHg 75%
17:00 +19°C° 0.4 mm 3 m/s 750 mmHg 78%
18:00 +19°C° 0.4 mm 3 m/s 750 mmHg 81%
19:00 +17°C° 0.2 mm 2 m/s 751 mmHg 84%
20:00 +16°C° 0.2 mm 1 m/s 751 mmHg 87%
21:00 +15°C° 0.2 mm 1 m/s 752 mmHg 89%
22:00 +15°C° 0 mm 1 m/s 752 mmHg 89%
23:00 +14°C° 0 mm 1 m/s 752 mmHg 90%

Depois de amanhã, 2 Agosto, Segunda-feira

Tempo Temperatura Precipitação Vento Pressão Humidade
00:00 +13°C° 0 mm 0 m/s 752 mmHg 90%
01:00 +13°C° 0 mm 0 m/s 752 mmHg 90%
02:00 +13°C° 0 mm 0 m/s 752 mmHg 90%
03:00 +13°C° 0 mm 0 m/s 752 mmHg 90%
04:00 +13°C° 0 mm 0 m/s 752 mmHg 89%
05:00 +14°C° 0 mm 0 m/s 752 mmHg 88%
06:00 +14°C° 0 mm 0 m/s 752 mmHg 88%
07:00 +18°C° 0.1 mm 1 m/s 752 mmHg 83%
08:00 +19°C° 0.1 mm 1 m/s 753 mmHg 78%
09:00 +20°C° 0.1 mm 2 m/s 753 mmHg 73%
10:00 +20°C° 0.6 mm 3 m/s 752 mmHg 71%
11:00 +21°C° 0.6 mm 3 m/s 752 mmHg 69%
12:00 +22°C° 0.6 mm 4 m/s 752 mmHg 67%
13:00 +22°C° 0.9 mm 4 m/s 752 mmHg 69%
14:00 +21°C° 0.9 mm 4 m/s 752 mmHg 71%
15:00 +21°C° 0.9 mm 4 m/s 752 mmHg 72%
16:00 +21°C° 0.5 mm 4 m/s 752 mmHg 76%
17:00 +20°C° 0.5 mm 3 m/s 752 mmHg 79%
18:00 +19°C° 0.5 mm 2 m/s 752 mmHg 82%
19:00 +19°C° 0.3 mm 1 m/s 752 mmHg 84%
20:00 +18°C° 0.3 mm 1 m/s 752 mmHg 86%
21:00 +15°C° 0.3 mm 0 m/s 752 mmHg 88%
22:00 +15°C° 0.5 mm 0 m/s 752 mmHg 89%
23:00 +14°C° 0.5 mm 0 m/s 752 mmHg 91%

3 Agosto, Terça-feira

Tempo Temperatura Precipitação Vento Pressão Humidade
00:00 +14°C° 0.5 mm 0 m/s 752 mmHg 92%
01:00 +15°C° 0.7 mm 1 m/s 752 mmHg 93%
02:00 +15°C° 0.7 mm 1 m/s 752 mmHg 95%
03:00 +15°C° 0.7 mm 1 m/s 752 mmHg 96%
04:00 +14°C° 1.2 mm 1 m/s 752 mmHg 96%
05:00 +14°C° 1.2 mm 1 m/s 752 mmHg 96%
06:00 +14°C° 1.2 mm 1 m/s 752 mmHg 96%
07:00 +15°C° 0.4 mm 2 m/s 752 mmHg 94%
08:00 +15°C° 0.4 mm 2 m/s 752 mmHg 91%
09:00 +14°C° 0.4 mm 3 m/s 752 mmHg 89%
10:00 +16°C° 0.4 mm 3 m/s 752 mmHg 85%
11:00 +17°C° 0.4 mm 4 m/s 752 mmHg 82%
12:00 +18°C° 0.4 mm 4 m/s 752 mmHg 78%
13:00 +18°C° 0.3 mm 4 m/s 752 mmHg 75%
14:00 +19°C° 0.3 mm 4 m/s 752 mmHg 71%
15:00 +20°C° 0.3 mm 3 m/s 752 mmHg 68%
16:00 +19°C° 0.1 mm 3 m/s 752 mmHg 70%
17:00 +19°C° 0.1 mm 2 m/s 752 mmHg 73%
18:00 +20°C° 0.1 mm 1 m/s 752 mmHg 76%
19:00 +18°C° 0 mm 1 m/s 752 mmHg 79%
20:00 +16°C° 0 mm 1 m/s 753 mmHg 83%
21:00 +14°C° 0 mm 1 m/s 753 mmHg 87%
22:00 +14°C° 0 mm 1 m/s 753 mmHg 88%
23:00 +13°C° 0 mm 1 m/s 753 mmHg 89%

4 Agosto, Quarta-feira

Tempo Temperatura Precipitação Vento Pressão Humidade
00:00 +13°C° 0 mm 1 m/s 752 mmHg 90%
01:00 +13°C° 0 mm 1 m/s 752 mmHg 90%
02:00 +13°C° 0 mm 1 m/s 752 mmHg 90%
03:00 +13°C° 0 mm 1 m/s 752 mmHg 91%
04:00 +13°C° 0 mm 1 m/s 752 mmHg 90%
05:00 +14°C° 0 mm 1 m/s 752 mmHg 90%
06:00 +14°C° 0 mm 1 m/s 752 mmHg 89%
07:00 +15°C° 0.1 mm 2 m/s 752 mmHg 86%
08:00 +16°C° 0.1 mm 2 m/s 752 mmHg 84%
09:00 +17°C° 0.1 mm 2 m/s 752 mmHg 81%
10:00 +17°C° 0.2 mm 2 m/s 752 mmHg 83%
11:00 +18°C° 0.2 mm 1 m/s 752 mmHg 85%
12:00 +16°C° 0.2 mm 1 m/s 752 mmHg 87%
13:00 +17°C° 0 mm 2 m/s 752 mmHg 82%
14:00 +18°C° 0 mm 2 m/s 751 mmHg 77%
15:00 +19°C° 0 mm 3 m/s 751 mmHg 72%
16:00 +19°C° 0 mm 3 m/s 751 mmHg 75%
17:00 +19°C° 0 mm 4 m/s 750 mmHg 78%
18:00 +18°C° 0 mm 4 m/s 750 mmHg 82%
19:00 +17°C° 0.1 mm 4 m/s 750 mmHg 85%
20:00 +15°C° 0.1 mm 4 m/s 750 mmHg 89%
21:00 +14°C° 0.1 mm 3 m/s 750 mmHg 92%
22:00 +14°C° 0 mm 3 m/s 750 mmHg 93%
23:00 +14°C° 0 mm 3 m/s 749 mmHg 94%

5 Agosto, Quinta-feira

Tempo Temperatura Precipitação Vento Pressão Humidade
00:00 +15°C° 0 mm 2 m/s 749 mmHg 94%
01:00 +14°C° 0.1 mm 3 m/s 749 mmHg 95%
02:00 +14°C° 0.1 mm 3 m/s 749 mmHg 95%
03:00 +14°C° 0.1 mm 3 m/s 748 mmHg 95%
04:00 +14°C° 0.2 mm 3 m/s 748 mmHg 95%
05:00 +15°C° 0.2 mm 4 m/s 748 mmHg 96%
06:00 +15°C° 0.2 mm 4 m/s 748 mmHg 96%
07:00 +15°C° 0.2 mm 4 m/s 748 mmHg 96%
08:00 +15°C° 0.2 mm 4 m/s 748 mmHg 95%
09:00 +15°C° 0.2 mm 5 m/s 748 mmHg 95%
10:00 +16°C° 0.1 mm 5 m/s 748 mmHg 91%
11:00 +17°C° 0.1 mm 5 m/s 748 mmHg 88%
12:00 +17°C° 0.1 mm 5 m/s 748 mmHg 84%
13:00 +19°C° 0.1 mm 5 m/s 748 mmHg 79%
14:00 +20°C° 0.1 mm 4 m/s 748 mmHg 74%
15:00 +20°C° 0.1 mm 4 m/s 747 mmHg 69%
16:00 +20°C° 0 mm 4 m/s 747 mmHg 71%
17:00 +19°C° 0 mm 3 m/s 747 mmHg 73%
18:00 +18°C° 0 mm 3 m/s 746 mmHg 75%
19:00 +18°C° 1.3 mm 4 m/s 746 mmHg 80%
20:00 +16°C° 1.3 mm 5 m/s 746 mmHg 86%
21:00 +16°C° 1.3 mm 5 m/s 746 mmHg 91%
22:00 +16°C° 0.4 mm 5 m/s 745 mmHg 92%
23:00 +16°C° 0.4 mm 5 m/s 745 mmHg 92%
Mostrar mais

Necessitamos do seu Consentimento

A Meteoprog e os seus Fornecedores de Serviços podem armazenar e aceder a dados pessoais como cookies, identificadores do dispositivo ou outras tecnologias semelhantes existentes no seu dispositivo e processar estes dados para personalizar conteúdos e anúncios, assim como funcionalidades nas redes sociais e análise de tráfego.

  • Armazenar e/ou aceder a informações no seu dispositivo

    Os cookies, identificadores do dispositivo ou outras informações podem ser armazenados ou acedidos no seu dispositivo, para os fins acima indicados.

  • Anúncios e conteúdos personalizados, medição de anúncios e conteúdos, dados sobre o público-alvo e desenvolvimento de produtos

    Os anúncios e os conteúdos podem ser personalizados com base num perfil. Podem ser adicionados dados adicionais para uma maior personalização dos anúncios e dos conteúdos. A eficácia dos anúncios e dos conteúdos pode ser medida. Podem ser obtidas informações sobre o público que visualizou os anúncios e os conteúdos. Estes dados podem ser usados para desenvolver ou melhorar sistemas, softwares ou a experiência do utilizador.

Ao clicar em "Eu concordo”, permitirá o uso de cookies, identificadores do dispositivo e web beacons mencionados ou outras tecnologias semelhantes. As configurações do navegador do seu dispositivo podem ser alteradas.

Para certos fins, podem ser invocados interesses legítimos ao invés de consentimento. Pode ler mais informação sobre este assunto na nossa Política de Privacidade e Cookies.